Location: Bjelajci
(45.0103°N, 16.1758°E)
Time: 19:14:29
(UTC+00:00)

deb Kosmos-1763 - Pass Details

Date: 14 July 2020
Orbit: 464 x 480 km, 74.0° (Epoch: 06 August)

Event Time Altitude Azimuth Distance (km) Brightness Sun altitude
Exits shadow 01:50:01 23° 220° (SW) 1,032 5.1 -13.1°
Maximum altitude 01:52:01 58° 293° (WNW) 550 4.2 -12.8°
Drops below altitude 10° 01:55:35 10° 14° (NNE) 1,635 7.8 -12.4°
Sets 01:57:44 0° 18° (NNE) 2,520 9.0 -12.2°
